Location: Middelsbur
(53.6609°N, 7.5020°E)
Time: 13:19:28
(UTC+00:00)

IRIDIUM 103 - Pass Details

Date: 06 July 2020
Orbit: 776 x 779 km, 86.4° (Epoch: 07 August)

Event Time Altitude Azimuth Distance (km) Brightness Sun altitude
Exits shadow 23:08:13 20° 184° (S) 1,764 5.6 -13.6°
Maximum altitude 23:11:59 88° 276° (W) 788 4.3 -13.6°
Drops below altitude 10° 23:17:15 10° 5° (N) 2,346 8.2 -13.7°
Sets 23:19:37 0° 5° (N) 3,278 9.4 -13.7°
